Date String (YYYY-MM-DD hh:mm:ss) UTC,Instrument flags,Ambient pressure (hPa),Sample flow (lpm),Bypass flow (lpm),Sample temperature (°C),Ambient temperature (°C),ASC tube jacket temperature (°C),LED temperature (°C),Box temperature (°C),Sample RH (%),Span deviation,Mass concentration (μg/m³),Mass concentration (μg/m³),Mass concentration (μg/m³)
DateTimeUTC,F1_M11,P_M11,Q1_M11,Q2_M11,T1_M11,T2_M11,T3_M11,T4_M11,T5_M11,U1_M11,ZSPAN_M11,X2_M11,X0_M11,X1_M11
2023-02-23 23:00:00,,0822.8,5.01,0.00,22.9,22.5,00.0,31.5,24.7,04.0,0000.0,0004.60,0008.53,0004.16
2023-02-23 23:01:00,,0822.8,5.02,0.00,22.9,22.2,00.0,31.5,24.6,04.0,0000.0,0004.61,0009.63,0004.17
2023-02-23 23:02:00,,0822.8,5.00,0.00,22.8,21.8,00.0,31.5,24.6,04.0,0000.0,0004.61,0009.47,0004.18
2023-02-23 23:03:00,,0822.9,5.00,0.00,22.8,21.6,00.0,31.5,24.5,04.0,0000.0,0004.59,0009.37,0004.17
2023-02-23 23:04:00,,0823.0,4.99,0.00,22.8,21.4,00.0,31.5,24.5,03.9,0000.0,0004.58,0009.24,0004.18
2023-02-23 23:05:00,,0823.0,5.00,0.00,22.8,21.3,00.0,31.5,24.4,04.0,0000.0,0004.60,0009.19,0004.17
2023-02-23 23:06:00,,0822.9,5.00,0.00,22.7,21.2,00.0,31.5,24.4,04.1,0000.0,0004.60,0009.07,0004.17
2023-02-23 23:07:00,,0822.9,4.99,0.00,22.7,21.2,00.0,31.5,24.4,04.1,0000.0,0004.58,0009.02,0004.17
2023-02-23 23:08:00,,0822.9,5.00,0.00,22.7,21.1,00.0,31.5,24.4,04.0,0000.0,0004.55,0008.94,0004.17
2023-02-23 23:09:00,,0822.8,5.00,0.00,22.7,21.1,00.0,31.5,24.3,04.0,0000.0,0004.53,0009.02,0004.16
2023-02-23 23:10:00,,0822.8,5.01,0.00,22.7,21.0,00.0,31.5,24.3,04.0,0000.0,0004.50,0009.06,0004.16
2023-02-23 23:11:00,,0822.8,5.00,0.00,22.6,21.2,00.0,31.4,24.3,04.0,0000.0,0004.49,0009.07,0004.17
2023-02-23 23:12:00,,0823.0,5.00,0.00,22.7,22.1,00.0,31.4,24.5,04.0,0000.0,0004.47,0007.95,0004.16
2023-02-23 23:13:00,,0823.1,4.98,0.00,22.8,23.1,00.0,31.4,24.8,04.0,0000.0,0004.47,0007.85,0004.15
2023-02-23 23:14:00,,0823.2,5.01,0.00,22.9,23.2,00.0,31.5,24.8,04.0,0000.0,0004.48,0007.94,0004.15
2023-02-23 23:15:00,,0823.1,4.96,0.00,22.9,22.8,00.0,31.5,24.8,04.0,0000.0,0004.48,0007.98,0004.14
2023-02-23 23:16:00,,0823.1,4.99,0.00,22.9,22.4,00.0,31.5,24.7,04.0,0000.0,0004.46,0007.95,0004.14
2023-02-23 23:17:00,,0823.1,5.01,0.00,22.9,22.0,00.0,31.5,24.6,04.0,0000.0,0004.44,0008.02,0004.14
2023-02-23 23:18:00,,0823.0,5.00,0.00,22.8,21.7,00.0,31.5,24.6,04.0,0000.0,0004.45,0007.98,0004.14
2023-02-23 23:19:00,,0823.1,5.03,0.00,22.8,21.6,00.0,31.5,24.5,04.0,0000.0,0004.47,0008.09,0004.16
2023-02-23 23:20:00,,0823.2,5.01,0.00,22.8,21.4,00.0,31.5,24.5,04.0,0000.0,0004.51,0008.34,0004.17
2023-02-23 23:21:00,,0823.2,4.99,0.00,22.8,21.3,00.0,31.5,24.4,04.0,0000.0,0004.54,0008.68,0004.17
2023-02-23 23:22:00,,0823.3,5.01,0.00,22.7,21.2,00.0,31.5,24.4,04.0,0000.0,0004.53,0009.38,0004.16
2023-02-23 23:23:00,,0823.3,5.00,0.00,22.7,21.1,00.0,31.5,24.4,04.0,0000.0,0004.54,0009.79,0004.16
2023-02-23 23:24:00,,0823.3,5.00,0.00,22.7,21.0,00.0,31.5,24.3,04.0,0000.0,0004.55,0009.81,0004.17
2023-02-23 23:25:00,,0823.3,5.02,0.00,22.7,21.0,00.0,31.5,24.3,04.0,0000.0,0004.56,0009.83,0004.18
2023-02-23 23:26:00,,0823.3,5.01,0.00,22.6,20.9,00.0,31.4,24.3,04.0,0000.0,0004.58,0009.88,0004.19
2023-02-23 23:27:00,,0823.4,5.01,0.00,22.6,21.1,00.0,31.4,24.3,04.0,0000.0,0004.59,0009.87,0004.20
2023-02-23 23:28:00,,0823.4,4.99,0.00,22.7,22.0,00.0,31.4,24.5,04.0,0000.0,0004.62,0009.71,0004.21
2023-02-23 23:29:00,,0823.3,4.98,0.00,22.8,23.0,00.0,31.4,24.7,04.0,0000.0,0004.61,0009.67,0004.19
2023-02-23 23:30:00,,0823.3,5.01,0.00,22.9,23.1,00.0,31.5,24.8,04.0,0000.0,0004.61,0009.57,0004.19
2023-02-23 23:31:00,,0823.4,5.01,0.00,22.9,22.6,00.0,31.5,24.8,04.0,0000.0,0004.60,0009.16,0004.20
2023-02-23 23:32:00,,0823.5,5.02,0.00,22.9,22.2,00.0,31.5,24.7,04.0,0000.0,0004.57,0008.66,0004.20
2023-02-23 23:33:00,,0823.6,5.00,0.00,22.9,22.0,00.0,31.5,24.6,04.0,0000.0,0004.58,0007.89,0004.20
2023-02-23 23:34:00,,0823.6,5.00,0.00,22.8,21.7,00.0,31.5,24.6,04.0,0000.0,0004.58,0007.57,0004.21
2023-02-23 23:35:00,,0823.4,5.00,0.00,22.8,21.5,00.0,31.5,24.5,04.0,0000.0,0004.59,0007.98,0004.21
2023-02-23 23:36:00,,0823.6,5.00,0.00,22.8,21.4,00.0,31.5,24.5,04.0,0000.0,0004.59,0008.19,0004.22
2023-02-23 23:37:00,,0823.6,5.01,0.00,22.8,21.3,00.0,31.5,24.4,04.0,0000.0,0004.58,0008.35,0004.22
2023-02-23 23:38:00,,0823.4,5.00,0.00,22.7,21.1,00.0,31.5,24.4,04.1,0000.0,0004.59,0008.57,0004.22
2023-02-23 23:39:00,,0823.4,5.00,0.00,22.7,21.1,00.0,31.5,24.3,04.1,0000.0,0004.58,0008.69,0004.22
2023-02-23 23:40:00,,0823.4,5.00,0.00,22.7,21.0,00.0,31.5,24.3,04.1,0000.0,0004.59,0009.17,0004.23
2023-02-23 23:41:00,,0823.6,5.00,0.00,22.6,21.0,00.0,31.5,24.3,04.2,0000.0,0004.60,0009.75,0004.23
2023-02-23 23:42:00,,0823.7,4.99,0.00,22.6,20.9,00.0,31.4,24.2,04.2,0000.0,0004.58,0009.93,0004.23
2023-02-23 23:43:00,,0823.7,4.99,0.00,22.6,21.5,00.0,31.4,24.4,04.2,0000.0,0004.63,0010.05,0004.25
2023-02-23 23:44:00,,0823.7,5.00,0.00,22.7,22.6,00.0,31.4,24.6,04.2,0000.0,0004.66,0010.08,0004.28
2023-02-23 23:45:00,,0823.7,4.97,0.00,22.8,23.1,00.0,31.4,24.8,04.2,0000.0,0004.68,0010.08,0004.31
2023-02-23 23:46:00,,0823.7,4.97,0.00,22.9,22.8,00.0,31.5,24.8,04.1,0000.0,0004.74,0009.78,0004.34
2023-02-23 23:47:00,,0823.7,4.99,0.00,22.9,22.4,00.0,31.5,24.7,04.1,0000.0,0004.80,0010.04,0004.40
2023-02-23 23:48:00,,0823.6,4.99,0.00,22.9,22.0,00.0,31.5,24.6,04.1,0000.0,0004.83,0010.34,0004.45
2023-02-23 23:49:00,,0823.6,5.02,0.00,22.8,21.7,00.0,31.5,24.5,04.1,0000.0,0004.86,0010.16,0004.49
2023-02-23 23:50:00,,0823.7,4.97,0.00,22.8,21.5,00.0,31.5,24.5,04.2,0000.0,0004.91,0010.11,0004.54
2023-02-23 23:51:00,,0823.7,5.00,0.00,22.8,21.3,00.0,31.5,24.4,04.2,0000.0,0004.94,0009.68,0004.59
2023-02-23 23:52:00,,0823.7,5.00,0.00,22.7,21.1,00.0,31.5,24.4,04.2,0000.0,0004.97,0009.19,0004.63
2023-02-23 23:53:00,,0823.7,5.01,0.00,22.7,21.0,00.0,31.5,24.3,04.2,0000.0,0005.03,0009.15,0004.68
2023-02-23 23:54:00,,0823.7,5.00,0.00,22.7,20.9,00.0,31.5,24.3,04.2,0000.0,0005.06,0009.22,0004.72
2023-02-23 23:55:00,,0823.7,5.00,0.00,22.6,20.8,00.0,31.4,24.2,04.1,0000.0,0005.09,0009.26,0004.75
2023-02-23 23:56:00,,0823.8,5.00,0.00,22.6,21.1,00.0,31.4,24.3,04.2,0000.0,0005.10,0009.31,0004.77
2023-02-23 23:57:00,,0823.9,4.99,0.00,22.7,22.1,00.0,31.4,24.5,04.2,0000.0,0005.10,0009.28,0004.78
2023-02-23 23:58:00,,0823.9,4.98,0.00,22.8,22.9,00.0,31.4,24.7,04.2,0000.0,0005.10,0008.73,0004.79
2023-02-23 23:59:00,,0823.8,5.00,0.00,22.9,22.9,00.0,31.5,24.7,04.2,0000.0,0005.11,0008.52,0004.79
